This demonstration page uses our WeatherBlox Daily Observations layout. Learn more.

Left ArrowRight Arrow

44.8408, -93.29828

Hourly Observations for March 24, 2016

Temp ( °F °C ) Dew Point ( °F °C ) Humidity (%) Winds ( mph kmh ) Pressure ( in mb ) Visibility ( mi km ) Precip ( " mm )
12:53 am 00:53 Cloudy 31 -0.6 21 -6.1 67 67 NE 13 20 29.97 1015 10 16 0.00 0.00
1:53 am 01:53 Cloudy 31 -0.6 21 -6.1 67 67 NNE 14 22 29.95 1014 10 16 0.00 0.00
2:53 am 02:53 Cloudy 30 -1.1 21 -6.1 69 69 N 12 19 29.96 1015 10 16 0.00 0.00
3:53 am 03:53 Cloudy 30 -1.1 20 -6.7 66 66 N 12 19 29.96 1014 10 16 0.00 0.00
4:53 am 04:53 Cloudy 29 -1.7 19 -7.2 66 66 N 13 20 29.96 1015 10 16 0.00 0.00
5:53 am 05:53 Cloudy 29 -1.7 18 -7.8 63 63 N 14 22 29.96 1015 10 16 0.00 0.00
6:53 am 06:53 Cloudy 28 -2.2 17 -8.3 63 63 N 16 26 29.96 1015 10 16 0.00 0.00
7:53 am 07:53 Mostly Cloudy 28 -2.2 16 -8.9 60 60 N 15 24 29.93 1014 10 16 0.00 0.00
8:53 am 08:53 Mostly Cloudy 30 -1.1 17 -8.3 58 58 N 15 24 29.93 1013 10 16 0.00 0.00
9:53 am 09:53 Mostly Cloudy 31 -0.6 18 -7.8 59 59 NNE 15 24 29.93 1013 10 16 0.00 0.00
10:53 am 10:53 Mostly Cloudy 32 0 18 -7.8 56 56 N 14 22 29.93 1014 10 16 0.00 0.00
11:53 am 11:53 Partly Cloudy 35 1.7 19 -7.2 52 52 NNE 13 20 29.91 1013 10 16 0.00 0.00
12:53 pm 12:53 Mostly Sunny 38 3.3 18 -7.8 44 44 N 14 22 29.88 1012 10 16 0.00 0.00
1:53 pm 13:53 Sunny 41 5 12 -11.1 30 30 N 14 22 29.87 1011 10 16 0.00 0.00
2:53 pm 14:53 Sunny 45 7.2 14 -10 29 29 N 14 22 29.87 1012 10 16 0.00 0.00
3:53 pm 15:53 Sunny 46 7.8 12 -11.1 25 25 NNE 12 19 29.87 1012 10 16 0.00 0.00
4:53 pm 16:53 Sunny 47 8.3 13 -10.6 25 25 N 12 19 29.87 1012 10 16 0.00 0.00
5:53 pm 17:53 Sunny 46 7.8 11 -11.7 24 24 N 6 9 29.88 1012 10 16 0.00 0.00
6:53 pm 18:53 Sunny 44 6.7 11 -11.7 26 26 N 6 9 29.89 1012 10 16 0.00 0.00
7:53 pm 19:53 Clear 42 5.6 13 -10.6 30 30 NNW 6 9 29.90 1013 10 16 0.00 0.00
8:53 pm 20:53 Clear 40 4.4 13 -10.6 33 33 N 3 6 29.91 1013 10 16 0.00 0.00
9:53 pm 21:53 Clear 39 3.9 15 -9.4 38 38 Calm 29.93 1014 10 16 0.00 0.00
10:53 pm 22:53 Clear 38 3.3 13 -10.6 36 36 Calm 29.94 1014 10 16 0.00 0.00
11:53 pm 23:53 Clear 36 2.2 15 -9.4 42 42 SE 5 7 29.94 1014 10 16 0.00 0.00

Powered by AerisWeather